Home > Weather > Douai > Past weeks

Flag for France Weather for the Past 2 Weeks in Douai, France

Now
46 °F

Clear.


Feels Like: 40 °F
Forecast: 45 / 51 °F
Wind: 16 mph from Southwest

Location: Lille Airport

Current Time: Feb 7, 2016 at 7:20:39 PM

Latest Report: Feb 7, 2016 at 7:00 PM


Visibility: 10 mi

Pressure: 29.59 "Hg

Humidity: 71%

Dew point: 37 °F

Location of DouaiLocation

Historic Weather in Douai — Graph

°F

Douai Temperature Yesterday

Maximum temperature yesterday: 54 °F (at 11:30 PM)
Minimum temperature yesterday: 46 °F (at 6:30 AM)
Average temperature yesterday: 50 °F

High & Low Weather Summary for the Past Weeks

 TemperatureHumidityPressure
High54 °F (Jan 25, 1:30 PM)100% (Jan 23, 6:00 PM)30.54 "Hg (Jan 23, 6:00 PM)
Low36 °F (Feb 4, 2:00 AM)46% (Jan 28, 3:00 PM)29.33 "Hg (Feb 7, 2:30 AM)
Average47 °F85%30.08 "Hg
* Reported Jan 23 6:00 PM — Feb 7 6:00 PM, Douai, Weather by CustomWeather, © 2016

Note: Actual official high and low records may vary slightly from our data, if they occured in-between our weather recording intervals... More about our weather records

Advertising

Douai Weather History for the Previous 24 Hours

 ConditionsComfort  
Time TempWeatherWind HumidityBarometerVisibility
6:00 PM
Sun, Feb 7
43 °FPartly cloudy.10 mph81%29.59 "HgN/A
5:30 PM43 °FLight rain. Mostly cloudy.15 mph81%29.59 "HgN/A
5:00 PM48 °FMostly cloudy.17 mph62%29.59 "HgN/A
4:30 PM48 °FMostly cloudy.15 mph62%29.59 "HgN/A
4:00 PM48 °FMostly cloudy.18 mph62%29.56 "HgN/A
3:30 PM48 °FMostly cloudy.20 mph62%29.56 "HgN/A
3:00 PM48 °FBroken clouds.21 mph62%29.56 "HgN/A
2:30 PM48 °FMostly cloudy.16 mph62%29.56 "HgN/A
2:00 PM48 °FPartly sunny.18 mph62%29.56 "HgN/A
1:30 PM48 °FMostly cloudy.17 mph66%29.56 "HgN/A
1:00 PM46 °FOvercast.16 mph71%29.53 "HgN/A
12:30 PM46 °FBroken clouds.18 mph71%29.53 "HgN/A
12:00 PM46 °FPassing clouds.18 mph71%29.53 "HgN/A
11:30 AM46 °FPartly sunny.16 mph76%29.53 "HgN/A
11:00 AM45 °FOvercast.17 mph76%29.50 "HgN/A
10:30 AM45 °FMostly cloudy.17 mph81%29.50 "HgN/A
10:00 AM45 °FPartly sunny.16 mph81%29.50 "HgN/A
9:30 AM45 °FPartly sunny.12 mph81%29.47 "HgN/A
9:00 AM45 °FOvercast.12 mph81%29.47 "HgN/A
8:30 AM45 °FPartly sunny.14 mph81%29.47 "HgN/A
8:00 AM45 °FClear.14 mph81%29.45 "Hg10 mi
7:30 AM45 °FPassing clouds.13 mph87%29.45 "HgN/A
7:00 AM45 °FPassing clouds.10 mph87%29.42 "HgN/A
6:30 AM45 °FMostly cloudy.12 mph87%29.42 "HgN/A
6:00 AM45 °FClear.10 mph87%29.39 "Hg10 mi
5:30 AM45 °FLight rain. Mostly cloudy.13 mph87%29.39 "HgN/A
5:00 AM46 °FLight rain. Passing clouds.14 mph93%29.39 "Hg6 mi
4:30 AM46 °FLight rain. Fog.20 mph93%29.36 "Hg3 mi
4:00 AM50 °FLight rain. Mostly cloudy.24 mph82%29.33 "HgN/A
3:30 AM50 °FLight rain. Overcast.22 mph76%29.33 "HgN/A
3:00 AM52 °FLight rain. Mostly cloudy.18 mph72%29.33 "HgN/A
2:30 AM50 °FLight rain. Overcast.17 mph76%29.33 "HgN/A
2:00 AM52 °FLight rain. Mostly cloudy.21 mph72%29.36 "HgN/A
1:00 AM52 °FMostly cloudy.17 mph67%29.39 "HgN/A
12:30 AM54 °FClear.17 mph63%29.39 "Hg10 mi
12:00 AM54 °FClear.18 mph63%29.39 "Hg10 mi
11:30 PM
Sat, Feb 6
54 °FClear.18 mph63%29.39 "Hg10 mi
11:00 PM52 °FClear.20 mph67%29.39 "Hg10 mi
10:00 PM50 °FClear.17 mph71%29.42 "Hg10 mi
9:30 PM50 °FClear.17 mph71%29.45 "Hg10 mi
9:00 PM50 °FClear.16 mph76%29.45 "Hg10 mi
8:30 PM52 °FClear.17 mph67%29.45 "Hg10 mi
8:00 PM50 °FClear.14 mph71%29.47 "Hg10 mi
7:30 PM50 °FClear.13 mph76%29.50 "Hg10 mi
7:00 PM52 °FClear.14 mph72%29.53 "Hg10 mi
Weather by CustomWeather, © 2016

See weather overviewHow to use our weather pages